Regional Weather Roundup
Issued by NWS

Home | Current Version | Previous Version | Text Only | Print | Product List | Glossary Off
Versions: 1 2 3 4 5 6 7 8 9 10 11 12 13 14 15 16 17 18 19 20 21 22 23 24 25 26 27 28 29 30 31 32 33 34 35 36 37 38 39 40 41 42 43 44 45 46 47 48 49 50

000
ASUS43 KMPX 052001
RWRMN
WEATHER ROUNDUP FOR MINNESOTA
NATIONAL WEATHER SERVICE TWIN CITIES/CHANHASSEN MN
200 PM CST FRI FEB 05 2016


NOTE: "FAIR" INDICATES FEW OR NO CLOUDS BELOW 12,000 FEET WITH NO
SIGNIFICANT WEATHER AND/OR OBSTRUCTIONS TO VISIBILITY. N/A MEANS
CURRENT SKY AND/OR WEATHER CONDITIONS ARE NOT AVAILABLE.

MNZ060>063-068>070-052100-
   Twin Cities Metro

CITY           SKY/WX    TMP DP  RH WIND       PRES   REMARKS
TWIN CITIES    CLOUDY    27  16  63 S9        30.25F WCI  18
ST PAUL        CLOUDY    25  16  68 S12       30.27F WCI  14
CRYSTAL        CLOUDY    28  16  60 S10       30.22F WCI  19
BLAINE         PTSUNNY   28  18  64 S14       30.22F WCI  17
LAKEVILLE      CLOUDY    25  18  74 S7        30.25F WCI  17
EDEN PRAIRIE   CLOUDY    27  17  66 S14       30.23F WCI  16
SOUTH ST PAUL  CLOUDY    26  16  67 S5        30.26F WCI  20
LAKE ELMO      FAIR      27  18  69 S9        30.26F WCI  17
$$
MNZ001>005-007-008-013>017-022>024-027-028-052100-
   Northwest Minnesota

CITY           SKY/WX    TMP DP  RH WIND       PRES   REMARKS
BEMIDJI        MOSUNNY   29  20  68 W9        30.07S WCI  20
HALLOCK        PTSUNNY   19  16  86 NW3       30.13F
ROSEAU         MOSUNNY   21  16  79 NW7       30.11S WCI  13
WARROAD        SUNNY     23  16  74 W7        30.10F WCI  15
THIEF RVR FALL PTSUNNY   21  16  79 W5        30.12F WCI  15
CROOKSTON      MOSUNNY   21  18  86 NW3       30.14S
FOSSTON        CLOUDY    23  18  80 W9        30.11S WCI  13
DETROIT LAKES  CLOUDY    28  23  80 SW6       30.11S WCI  22
MOORHEAD       PTSUNNY   27  21  80 S6        30.15R WCI  20
PARK RAPIDS    CLOUDY    27  21  78 S12       30.08F WCI  17
MAHNOMEN       CLOUDY    25  21  86 W12       30.11S WCI  14
$$
MNZ006-009>011-018-025>026-052100-
   North Central Minnesota

CITY           SKY/WX    TMP DP  RH WIND       PRES   REMARKS
BAUDETTE       CLOUDY    24  14  65 W3        30.07F
FLAG ISLAND    CLOUDY    18  12  79 SE5       30.08F WCI  11
INTL FALLS     CLOUDY    25  14  63 W6        30.08F WCI  18
WASKISH        CLOUDY    25  18  74 SW8       30.09F WCI  16
LONGVILLE      PTSUNNY   27  16  63 S9G16     30.11F WCI  17
GRAND RAPIDS   CLOUDY    27  14  59 SW8G20    30.09F WCI  18
ORR            CLOUDY    23  10  58 CALM      30.07F
COOK           CLOUDY    21  12  68 S8        30.10F WCI  12
WALKER         CLOUDY    25  19  76 SW8       30.09F WCI  16
$$
MNZ012-019>021-037-052100-
   Northeast Minnesota

CITY           SKY/WX    TMP DP  RH WIND       PRES   REMARKS
DULUTH         PTSUNNY   24  12  60 SW14      30.13F WCI  12
ELY            CLOUDY    21  10  63 SW9       30.09F WCI  11
HIBBING        CLOUDY    24  11  57 VRB6      30.09F WCI  17
EVELETH        MOSUNNY   27  12  54 SW13G21   30.10F WCI  16
DULUTH HARBOR  CLOUDY    27  14  59 SW13G18   30.20F WCI  16
TWO HARBORS    CLOUDY    25  14  63 S10G16    30.14F WCI  15
SILVER BAY     CLOUDY    23  12  63 S12       30.14F WCI  12
GRAND MARAIS     N/A     24  18  77 W6        30.21F WCI  17
G MARAIS ARPRT CLOUDY    18  10  73 SW9       30.12F WCI   6
$$
MNZ029>031-032-039>041-046>048-054>057-064-052100-
   West Central Minnesota

CITY           SKY/WX    TMP DP  RH WIND       PRES   REMARKS
FERGUS FALLS   CLOUDY    27  21  80 S7        30.16F WCI  19
WHEATON        SUNNY     30  27  86 CALM      30.16F FOG
MORRIS         LGT SNOW N/A N/A N/A S7        30.13F
ALEXANDRIA     CLOUDY    25  16  68 SW9       30.14F WCI  15
ELBOW LAKE     FAIR      23  19  83 S8        30.14F WCI  14
WADENA         SUNNY     25  18  74 S9        30.10F WCI  15
GLENWOOD       PTSUNNY   27  18  69 S10       30.14F WCI  17
APPLETON       CLOUDY    28  19  69 SW5       30.15F WCI  23
BENSON         CLOUDY    28  18  64 CALM      30.15F
ORTONVILLE     LGT SNOW  28  23  80 W5        30.14F WCI  23
MADISON        CLOUDY    30  19  64 SW9       30.15F WCI  22
WILLMAR        FAIR      27  21  80 S8        30.16F WCI  18
$$
MNZ033>034-036-042>043-049>051-058-059-052100-
   Central Minnesota

CITY           SKY/WX    TMP DP  RH WIND       PRES   REMARKS
ST CLOUD       CLOUDY    25  13  60 S12       30.19F WCI  14
SAUK CENTRE    FAIR      26  16  65 S10       30.15F WCI  16
PAYNESVILLE    CLOUDY    25  16  69 S9G16     30.17F WCI  15
AITKIN         CLOUDY    28  12  50 S13G18    30.11F WCI  18
PINE RIVER     MOSUNNY   25  18  74 S12       30.14F WCI  14
BRAINERD       CLOUDY    24  14  65 SW13      30.13F WCI  12
STAPLES        CLOUDY    25  16  68 S10       30.12F WCI  15
LONG PRAIRIE   CLOUDY    27  14  59 S14       30.15F WCI  15
LITTLE FALLS   CLOUDY    28  12  50 S10G17    30.17F WCI  19
LITCHFIELD     CLOUDY    27  16  63 S6        30.18F WCI  20
BUFFALO        CLOUDY    27  15  61 S9        30.21F WCI  18
MAPLE LAKE     CLOUDY    27  17  66 SW6       30.22S WCI  20
$$
MNZ037-044-045-052-053-052100-
   East Central Minnesota

CITY           SKY/WX    TMP DP  RH WIND       PRES   REMARKS
PRINCETON      CLOUDY    28  16  59 S8        30.21F WCI  20
MORA           CLOUDY    27  18  69 S7        30.22F WCI  19
CAMBRIDGE      CLOUDY    28  16  59 S9        30.20F WCI  20
RUSH CITY      CLOUDY    23  15  69 S8        30.22F WCI  14
MOOSE LAKE     CLOUDY    27  14  59 S10G16    30.16F WCI  17
HINCKLEY       CLOUDY    23  16  74 S8        30.21F WCI  14
CLOQUET        SUNNY     25  10  54 S14G20    30.13F WCI  13
MCGREGOR       MOSUNNY   28  14  54 S13G22    30.14F WCI  18
$$
MNZ071>073-080-081-089-090-097-098-052100-
   Southwest Minnesota

CITY           SKY/WX    TMP DP  RH WIND       PRES   REMARKS
MONTEVIDEO     CLOUDY    28  19  69 W12       30.18R WCI  18
GRANITE FALLS  CLOUDY    29  22  76 S12       30.19S WCI  19
CANBY          CLOUDY    31  24  74 SW8       30.16S WCI  23
MARSHALL       FLURRIES  27  21  78 SW13      30.16S WCI  16
REDWOOD FALLS  CLOUDY    28  20  71 S13       30.18F WCI  17
OLIVIA         CLOUDY    30  21  69 S9        30.17F WCI  22
PIPESTONE        N/A     28  19  69 SW15      30.13F WCI  17
WINDOM         CLOUDY    27  19  74 S21       30.16F WCI  13
WORTHINGTON    CLOUDY    25  19  80 S21G28    30.16F WCI  10
JACKSON        CLOUDY    27  19  74 S17       30.19F WCI  14
TRACY          CLOUDY    28  23  83 SW24G30   30.13F FOG     WCI  13
SLAYTON        CLOUDY    26  24  95 S21G28    30.14F FOG     WCI  11
$$
MNZ065>067-074>077-082>085-091>093-052100-
   South Central Minnesota

CITY           SKY/WX    TMP DP  RH WIND       PRES   REMARKS
MANKATO        CLOUDY    23  16  74 S12       30.24F WCI  12
NEW ULM        CLOUDY    23  16  74 S16       30.20F WCI  10
ST JAMES       CLOUDY    25  19  80 S15       30.22F WCI  12
FAIRMONT       CLOUDY    23  16  74 S17       30.22F WCI   9
GLENCOE        CLOUDY    27  20  76 S8        30.21F WCI  18
FARIBAULT      CLOUDY    25  18  74 S7        30.25F WCI  17
OWATONNA       CLOUDY    25  16  68 S9        30.25F WCI  15
WASECA         CLOUDY    23  18  80 S10       30.27S WCI  12
ALBERT LEA     CLOUDY    25  14  63 S12       30.24F WCI  14
$$
MNZ078>079-086>088-094>096-052100-
   Southeast Minnesota

CITY           SKY/WX    TMP DP  RH WIND       PRES   REMARKS
ROCHESTER      CLOUDY    20  15  81 S12       30.27F WCI   8
RED WING       CLOUDY    25  12  58 SE7       30.28F WCI  17
STANTON        CLOUDY    26  17  70 S8        30.25F WCI  17
DODGE CENTER   CLOUDY    21  16  79 S10       30.26F WCI  10
WINONA         CLOUDY    28  14  54 CALM      30.34F
AUSTIN         CLOUDY    19  16  86 S12       30.27F WCI   7
PRESTON        CLOUDY    22  15  74 S9        30.29F WCI  12
$$
ABBREVIATIONS USED IN REMARKS
   TC - TEMPERATURES IN CELSIUS
  WCI - WIND CHILL INDEX
   HX - HEAT INDEX
  VSB - VISIBILITY
$$



USA.gov is the U.S. government's official web portal to all federal, state and local government web resources and services.